Date String (YYYY-MM-DD hh:mm:ss) UTC,Instrument flags,Ambient pressure (hPa),Sample flow (lpm),Bypass flow (lpm),Sample temperature (°C),Ambient temperature (°C),ASC tube jacket temperature (°C),LED temperature (°C),Box temperature (°C),Sample RH (%),Span deviation,Mass concentration (μg/m³),Mass concentration (μg/m³),Mass concentration (μg/m³)
DateTimeUTC,F1_M11,P_M11,Q1_M11,Q2_M11,T1_M11,T2_M11,T3_M11,T4_M11,T5_M11,U1_M11,ZSPAN_M11,X0_M11,X2_M11,X1_M11
2022-03-24 21:00:00,,0824.0,4.99,0.00,28.6,27.7,00.0,37.5,30.4,08.3,0000.0,0002.64,0001.26,0000.79
2022-03-24 21:01:00,,0824.1,5.00,0.00,28.6,27.7,00.0,37.5,30.4,08.3,0000.0,0002.60,0001.25,0000.79
2022-03-24 21:02:00,,0824.1,5.01,0.00,28.6,27.7,00.0,37.5,30.4,08.2,0000.0,0002.58,0001.24,0000.79
2022-03-24 21:03:00,,0824.1,4.99,0.00,28.6,27.7,00.0,37.5,30.4,08.2,0000.0,0002.55,0001.24,0000.79
2022-03-24 21:04:00,,0824.1,5.02,0.00,28.6,27.7,00.0,37.5,30.4,08.2,0000.0,0002.61,0001.28,0000.79
2022-03-24 21:05:00,,0824.1,5.00,0.00,28.6,27.7,00.0,37.5,30.4,08.2,0000.0,0002.82,0001.30,0000.78
2022-03-24 21:06:00,,0824.1,5.01,0.00,28.6,27.7,00.0,37.5,30.4,08.4,0000.0,0002.85,0001.29,0000.78
2022-03-24 21:07:00,,0824.1,5.01,0.00,28.6,27.7,00.0,37.5,30.4,08.3,0000.0,0002.88,0001.30,0000.77
2022-03-24 21:08:00,,0824.1,4.99,0.00,28.6,27.7,00.0,37.5,30.4,08.3,0000.0,0002.78,0001.28,0000.77
2022-03-24 21:09:00,,0824.2,5.02,0.00,28.6,27.7,00.0,37.5,30.4,08.0,0000.0,0002.67,0001.23,0000.77
2022-03-24 21:10:00,,0824.2,4.98,0.00,28.6,27.7,00.0,37.6,30.4,08.4,0000.0,0002.56,0001.20,0000.76
2022-03-24 21:11:00,,0824.1,4.99,0.00,28.6,27.7,00.0,37.6,30.4,08.7,0000.0,0002.59,0001.22,0000.78
2022-03-24 21:12:00,,0824.1,5.02,0.00,28.6,27.7,00.0,37.6,30.4,08.7,0000.0,0002.66,0001.26,0000.79
2022-03-24 21:13:00,,0824.1,5.01,0.00,28.7,27.7,00.0,37.6,30.4,08.7,0000.0,0002.72,0001.28,0000.79
2022-03-24 21:14:00,,0824.1,5.00,0.00,28.7,27.7,00.0,37.6,30.4,08.5,0000.0,0002.90,0001.27,0000.78
2022-03-24 21:15:00,,0824.1,4.99,0.00,28.7,27.7,00.0,37.6,30.4,08.7,0000.0,0002.99,0001.26,0000.78
2022-03-24 21:16:00,,0824.1,5.02,0.00,28.7,27.7,00.0,37.6,30.5,08.6,0000.0,0002.72,0001.22,0000.78
2022-03-24 21:17:00,,0824.2,4.99,0.00,28.7,27.7,00.0,37.6,30.5,08.4,0000.0,0002.48,0001.21,0000.78
2022-03-24 21:18:00,,0824.2,5.00,0.00,28.7,27.8,00.0,37.6,30.5,08.6,0000.0,0002.47,0001.21,0000.79
2022-03-24 21:19:00,,0824.1,5.01,0.00,28.7,27.8,00.0,37.6,30.4,08.3,0000.0,0002.61,0001.22,0000.81
2022-03-24 21:20:00,,0824.2,5.00,0.00,28.7,27.7,00.0,37.6,30.5,08.4,0000.0,0002.65,0001.26,0000.81
2022-03-24 21:21:00,,0824.1,4.99,0.00,28.7,27.7,00.0,37.6,30.5,08.4,0000.0,0002.69,0001.31,0000.82
2022-03-24 21:22:00,,0824.1,5.02,0.00,28.7,27.7,00.0,37.6,30.5,08.4,0000.0,0002.84,0001.34,0000.83
2022-03-24 21:23:00,,0824.1,4.98,0.00,28.7,27.7,00.0,37.6,30.5,08.5,0000.0,0003.02,0001.36,0000.84
2022-03-24 21:24:00,,0824.2,5.01,0.00,28.7,27.7,00.0,37.6,30.5,08.4,0000.0,0003.11,0001.39,0000.84
2022-03-24 21:25:00,,0824.2,5.00,0.00,28.7,27.8,00.0,37.6,30.5,08.4,0000.0,0003.08,0001.43,0000.85
2022-03-24 21:26:00,,0824.2,5.00,0.00,28.7,27.7,00.0,37.6,30.4,08.5,0000.0,0002.87,0001.46,0000.86
2022-03-24 21:27:00,,0824.1,5.01,0.00,28.7,27.7,00.0,37.6,30.4,08.4,0000.0,0003.02,0001.45,0000.86
2022-03-24 21:28:00,,0824.1,4.98,0.00,28.7,27.7,00.0,37.6,30.4,08.6,0000.0,0003.04,0001.44,0000.86
2022-03-24 21:29:00,,0824.2,5.01,0.00,28.7,27.7,00.0,37.6,30.4,08.4,0000.0,0003.16,0001.45,0000.87
2022-03-24 21:30:00,,0824.2,4.99,0.00,28.7,27.7,00.0,37.6,30.4,08.3,0000.0,0003.10,0001.47,0000.87
2022-03-24 21:31:00,,0824.1,4.99,0.00,28.7,27.7,00.0,37.6,30.4,08.4,0000.0,0003.20,0001.52,0000.88
2022-03-24 21:32:00,,0824.2,5.02,0.00,28.7,27.8,00.0,37.6,30.4,08.5,0000.0,0003.27,0001.52,0000.89
2022-03-24 21:33:00,,0824.2,4.99,0.00,28.7,27.7,00.0,37.6,30.4,08.5,0000.0,0003.52,0001.59,0000.89
2022-03-24 21:34:00,,0824.2,5.02,0.00,28.7,27.7,00.0,37.6,30.4,08.6,0000.0,0003.40,0001.61,0000.89
2022-03-24 21:35:00,,0824.2,5.00,0.00,28.7,27.7,00.0,37.6,30.4,08.5,0000.0,0003.39,0001.59,0000.88
2022-03-24 21:36:00,,0824.2,4.99,0.00,28.7,27.7,00.0,37.6,30.4,08.6,0000.0,0003.41,0001.59,0000.89
2022-03-24 21:37:00,,0824.3,5.01,0.00,28.7,27.8,00.0,37.6,30.4,08.5,0000.0,0003.48,0001.61,0000.89
2022-03-24 21:38:00,,0824.2,5.00,0.00,28.7,27.8,00.0,37.6,30.4,08.6,0000.0,0003.37,0001.62,0000.90
2022-03-24 21:39:00,,0824.2,4.99,0.00,28.7,27.8,00.0,37.6,30.4,08.7,0000.0,0003.41,0001.66,0000.91
2022-03-24 21:40:00,,0824.3,4.99,0.00,28.7,27.8,00.0,37.6,30.5,08.4,0000.0,0003.54,0001.71,0000.91
2022-03-24 21:41:00,,0824.2,5.02,0.00,28.7,27.8,00.0,37.6,30.5,08.5,0000.0,0003.55,0001.70,0000.89
2022-03-24 21:42:00,,0824.3,4.99,0.00,28.7,27.8,00.0,37.7,30.5,08.5,0000.0,0003.54,0001.68,0000.87
2022-03-24 21:43:00,,0824.3,4.99,0.00,28.7,27.8,00.0,37.7,30.5,08.4,0000.0,0003.43,0001.65,0000.87
2022-03-24 21:44:00,,0824.3,5.01,0.00,28.7,27.8,00.0,37.7,30.5,08.4,0000.0,0003.19,0001.59,0000.86
2022-03-24 21:45:00,,0824.3,5.01,0.00,28.7,27.8,00.0,37.7,30.5,08.6,0000.0,0003.13,0001.56,0000.87
2022-03-24 21:46:00,,0824.3,4.99,0.00,28.7,27.8,00.0,37.7,30.5,08.4,0000.0,0003.09,0001.54,0000.86
2022-03-24 21:47:00,,0824.3,4.99,0.00,28.7,27.9,00.0,37.7,30.5,08.4,0000.0,0003.01,0001.52,0000.86
2022-03-24 21:48:00,,0824.2,5.01,0.00,28.7,27.9,00.0,37.7,30.5,08.6,0000.0,0003.07,0001.50,0000.87
2022-03-24 21:49:00,,0824.3,5.00,0.00,28.7,27.9,00.0,37.7,30.5,08.5,0000.0,0003.05,0001.48,0000.87
2022-03-24 21:50:00,,0824.3,4.99,0.00,28.8,27.9,00.0,37.7,30.5,08.5,0000.0,0002.99,0001.45,0000.86
2022-03-24 21:51:00,,0824.2,4.99,0.00,28.8,27.9,00.0,37.7,30.5,08.4,0000.0,0002.96,0001.43,0000.86
2022-03-24 21:52:00,,0824.2,5.02,0.00,28.8,27.9,00.0,37.7,30.6,08.5,0000.0,0002.92,0001.43,0000.86
2022-03-24 21:53:00,,0824.3,4.99,0.00,28.8,27.9,00.0,37.7,30.6,08.4,0000.0,0003.31,0001.46,0000.87
2022-03-24 21:54:00,,0824.2,4.99,0.00,28.8,27.9,00.0,37.7,30.6,08.5,0000.0,0003.47,0001.49,0000.88
2022-03-24 21:55:00,,0824.3,5.01,0.00,28.8,27.9,00.0,37.7,30.5,08.6,0000.0,0003.41,0001.48,0000.89
2022-03-24 21:56:00,,0824.2,4.99,0.00,28.8,27.9,00.0,37.7,30.5,08.4,0000.0,0003.40,0001.49,0000.89
2022-03-24 21:57:00,,0824.2,5.01,0.00,28.8,27.9,00.0,37.7,30.5,08.5,0000.0,0004.13,0001.56,0000.90
2022-03-24 21:58:00,,0824.2,5.00,0.00,28.8,27.9,00.0,37.7,30.5,08.5,0000.0,0005.01,0001.63,0000.91
2022-03-24 21:59:00,,0824.2,4.98,0.00,28.8,27.9,00.0,37.7,30.5,08.5,0000.0,0004.87,0001.62,0000.91
